Probability
0 0 0 0 0 0 0 0 0 0 0 0 0 0 0 0 0 0 0 0 0 0 0 0 0 0 0 0 0 0 0 0 0 0 0 0 0 0 0 0 0 0 0 0
0 0 0 0 0 0 0 0 0 0 0 0 0 0 0 0 0 0 0 0 0 0 0 0 0 0 0 0 0 0 0 0 0 0 0 0 0 0 0 0 0 0 0 0
0 0 0 0 0 0 0 0 0 0 0 0 0 0 0 0 0 0 0 0 0 0 0 0 0 0 0 0 0 0 0 0 0 0 0 0 0 0 0 0 0 0 0 0
0 0 0 0 0 0 0 0 0 0 0 0 0 0 0 0 0 0 0 0 0 0 0 0 0 0 0 0 0 0 0 0 0 0 0 0 0 0 0 0 0 0 0 0
0 0 0 0 0 0 0 0 0 0 0 0 0 0 0 0 0 0 0 0 0 0 0 0 0 0 0 0 0 0 0 0 0 0 0 0 0 0 0 0 0 0 0 0
0 0 0 0 0 0 0 0 0 0 0 0 0 0 0 0 0 0 0 0 0 0 0 0 0 0 0 0 0 0 0 0 0 0 0 0 0 0 0 0 0 0 0 0
0 0 0 0 0 0 0 0 0 0 0 0 0 0 0 0 0 0 0 0 0 0 0 0 0 0 0 0 0 0 0 0 0 0 0 0 0 0 0 0 0 0 0 0
0 0 0 0 0 0 0 0 0 0 0 0 0 0 0 0 0 0 0 0 0 0 0 0 0 0 0 0 0 0 0 0 0 0 0 0 0 0 0 0 0 0 0 0
0 0 0 0 0 0 0 0 0 0 0 0 0 0 0 0 0 0 0 0 0 0 0 0 0 0 0 0 0 0 0 0 0 0 0 0 0 0 0 0 0 0 0 0
0 0 0 0 0 0 0 0 0 0 0 0 0 0 0 0 0 0 0 0 0 0 0 0 0 0 0 0 0 0 0 0 0 0 0 0 0 0 0 0 0 0 0 0
0 0 0 0 0 0 0 0 0 0 0 0 0 0 0 0 0 0 0 0 0 0 0 0 0 0 0 0 0 0 0 0 0 0 0 0 0 0 0 0 0 0 0 0
0 0 0 0 0 0 0 0 0 0 0 0 0 0 0 0 0 0 0 0 0 0 0 0 0 0 0 0 0 0 0 0 0 0 0 0 0 0 0 0 0 0 0 0
0 0 0 0 0 0 0 0 0 0 0 0 0 0 0 0 0 0 0 0 0 0 0 0 0 0 0 0 0 0 0 0 0 0 0 0 0 0 0 0 0 0 0 0
0 0 0 0 0 0 0 0 0 0 0 0 0 0 0 0 0 0 0 0 0 0 0 0 0 0 0 0 0 0 0 0 0 0 0 0 0 0 0 0 0 0 0 0
0 0 0 0 0 0 0 0 0 0 0 0 0 0 0 0 0 0 0 0 0 0 0 0 0 0 0 0 0 0 0 0 0 0 0 0 0 0 0 0 0 0 0 0
0 0 0 0 0 0 0 0 0 0 0 0 0 0 0 0 0 0 0 0 0 0 0 0 0 0 0 0 0 0 0 0 0 0 0 0 0 0 0 0 0 0 0 0
0 0 0 0 0 0 0 0 0 0 0 0 0 0 0 0 0 0 0 0 0 0 0 0 0 0 0 0 0 0 0 0 0 0 0 0 0 0 0 0 0 0 0 0
0 0 0 0 0 0 0 0 0 0 0 0 0 0 0 0 0 0 0 0 0 0 0 0 0 0 0 0 0 0 0 0 0 0 0 0 0 0 0 0 0 0 0 0
0 0 0 0 0 0 0 0 0 0 0 0 0 0 0 0 0 0 0 0 0 0 0 0 0 0 0 0 0 0 0 0 0 0 0 0 0 0 0 0 0 0 0 0
0 0 0 0 0 0 0 0 0 0 0 0 0 0 0 0 0 0 0 0 0 0 0 0 0 0 0 0 0 0 0 0 0 0 0 0 0 0 0 0 0 0 0 0
0 0 0 0 0 0 0 0 0 0 0 0 0 0 0 0 0 0 0 0 0 0 0 0 0 0 0 0 0 0 0 0 0 0 0 0 0 0 0 0 0 0 0 0
0 0 0 0 0 0 0 0 0 0 0 0 0 0 0 0 0 0 0 0 0 0 0 0 0 0 0 0 0 0 0 0 0 0 0 0 0 0 0 0 0 0 0 0
0 0 0 0 0 0 0 0 0 0 0 0 0 0 0 0 0 0 0 0 0 0 0 0 0 0 0 0 0 0 0 0 0 0 0 0 0 0 0 0 0 0 0 0
0 0 0 0 0 0 0 0 0 0 0 0 0 0 0 0 0 0 0 0 0 0 0 0 0 0 0 0 0 0 0 0 0 0 0 0 0 0 0 0 0 0 0 0
0 0 0 0 0 0 0 0 0 0 0 0 0 0 0 0 0 0 0 0 0 0 0 0 0 0 0 0 0 0 0 0 0 0 0 0 0 0 0 0 0 0 0 0
0 0 0 0 0 0 0 0 0 0 0 0 0 0 0 0 0 0 0 0 0 0 0 0 0 0 0 0 0 0 0 0 0 0 0 0 0 0 0 0 0 0 0 0
0 0 0 0 0 0 0 0 0 0 0 0 0 0 0 0 0 0 0 0 0 0 0 0 0 0 0 0 0 0 0 0 0 0 0 0 0 0 0 0 0 0 0 0
Wind_Speed
5 5 4 6 7 6 8 8 8 9 9 11 7 5 4 3 3 3 3 3 4 3 2 2 1 1 0 1 1 1 1 1 1 1 1 2 2 2 2 2 2 2 2 3
4 4 4 7 10 9 10 8 9 10 13 10 6 3 3 4 4 5 5 5 4 4 3 3 2 2 1 1 1 1 0 1 1 1 1 1 1 2 2 2 2 2 2 2
4 6 5 8 9 10 7 8 8 11 11 4 4 5 5 5 5 6 6 5 5 5 4 4 3 3 2 2 1 0 0 1 1 1 1 1 1 1 2 2 2 2 2 2
2 4 4 8 1 5 6 7 9 8 7 6 7 6 4 5 6 6 6 5 5 4 4 3 3 2 2 1 1 1 1 1 1 1 1 1 1 1 2 2 2 2 3 3
1 2 10 10 4 4 5 8 8 10 9 6 3 3 5 5 5 6 6 5 4 4 4 3 3 3 2 1 1 1 1 2 2 2 2 1 1 2 2 2 2 2 3 3
3 2 7 7 1 2 2 7 5 7 8 5 2 2 6 3 3 4 3 2 3 3 3 3 3 3 3 2 2 3 3 3 2 2 2 2 2 2 2 2 3 3 3 3
4 5 13 8 2 3 3 7 3 6 6 6 7 7 4 1 2 2 2 2 2 3 3 3 3 3 3 3 4 4 2 2 2 2 2 2 2 2 2 2 2 3 4 4
6 5 13 6 7 8 9 3 2 4 5 6 7 5 3 3 3 2 2 2 2 3 3 3 3 4 4 5 4 2 2 2 2 2 2 2 2 2 2 2 2 3 4 4
12 12 6 7 9 7 3 4 4 4 5 5 5 5 5 4 4 4 3 3 3 3 3 3 3 4 5 5 2 2 2 3 3 2 2 2 2 2 2 2 2 3 3 4
8 13 9 8 8 7 6 7 6 5 4 4 6 6 5 5 4 4 4 4 3 3 4 4 4 4 5 3 2 3 3 3 3 2 3 2 2 2 2 3 3 3 3 4
10 10 7 8 11 11 8 6 6 6 5 6 6 6 6 5 5 4 4 3 3 4 5 6 4 5 4 3 3 4 4 4 3 3 3 3 3 3 4 4 5 4 4 4
12 9 8 8 6 7 8 9 9 8 7 6 7 7 6 6 5 4 4 4 4 5 6 6 5 5 5 4 4 5 4 4 3 3 3 3 3 4 6 6 8 9 8 7
10 5 7 7 5 5 7 8 7 7 7 6 5 6 6 5 5 4 4 5 6 7 7 6 5 6 5 5 5 6 6 5 4 3 3 3 3 4 4 6 8 9 10 10
9 6 8 9 8 6 6 5 4 4 4 5 5 4 4 5 5 5 6 6 6 6 6 6 6 7 5 5 6 6 6 5 5 4 4 4 4 4 4 4 5 5 7 10
10 10 10 6 4 4 4 3 4 5 5 5 4 5 5 6 7 7 6 5 4 5 6 6 7 8 4 5 6 6 5 4 4 4 4 4 4 4 4 5 5 5 4 5
7 7 7 8 10 8 6 6 8 9 7 6 6 7 7 7 6 6 5 4 5 7 7 7 8 7 4 6 6 5 5 6 5 4 4 4 4 4 4 5 5 5 5 5
7 9 10 10 11 10 9 9 10 9 7 8 8 7 5 5 5 6 7 6 6 8 7 7 8 5 5 6 6 5 4 5 6 5 5 5 5 5 5 5 5 6 6 6
12 11 10 9 9 9 9 8 8 8 8 8 6 5 6 7 8 8 6 4 5 6 7 7 6 4 5 6 5 4 4 4 4 5 5 5 5 5 5 5 6 6 5 5
9 10 9 9 8 8 7 7 7 7 6 5 6 7 7 8 7 6 4 4 5 8 7 5 6 4 5 6 5 4 4 5 4 4 5 5 5 5 5 6 6 6 5 5
7 6 7 7 6 6 7 6 5 5 5 5 5 5 6 7 5 5 4 6 7 6 4 3 4 4 5 5 6 4 5 5 5 5 5 5 6 6 6 6 6 6 6 6
7 6 6 6 6 6 6 5 5 5 5 5 6 7 7 6 4 4 4 6 6 4 4 4 4 4 4 4 5 4 5 5 6 6 6 6 6 6 6 6 6 6 6 6
5 5 6 6 5 5 4 4 4 4 4 4 5 5 5 5 4 4 6 6 4 3 3 3 4 5 5 4 4 4 5 6 6 5 6 6 6 6 6 6 6 6 6 6
4 4 5 5 5 4 3 3 4 4 5 5 6 6 6 5 4 4 6 4 3 4 4 4 5 6 5 4 4 4 5 6 6 6 6 6 6 6 6 7 6 6 6 5
3 3 3 2 2 2 3 4 3 3 4 4 5 5 4 3 4 4 4 3 3 4 4 4 6 6 4 3 4 4 5 5 6 5 5 5 5 5 5 5 6 5 5 6
2 2 2 2 3 4 4 3 2 3 3 3 4 4 4 4 4 3 2 3 4 4 4 4 5 5 4 4 4 5 5 5 5 5 5 5 5 5 5 5 5 5 5 5
1 2 2 3 3 2 2 2 2 2 2 3 3 3 3 2 2 2 2 3 4 4 4 3 3 4 4 4 5 5 5 4 4 4 5 5 5 5 5 5 6 5 5 5
1 1 1 2 2 2 2 2 3 3 3 3 4 3 2 2 2 2 3 3 3 3 3 3 3 3 4 4 4 4 4 4 4 4 4 5 4 5 5 6 5 4 4 5
Wind_Direction
265 278 277 260 256 229 217 215 217 242 252 267 264 260 266 263 252 239 237 230 221 219 220 213 208 226 272 319 342 338 345 354 331 343 3 8 4 0 0 357 350 345 342 339
292 290 289 274 258 238 234 234 240 261 271 265 264 246 244 245 236 238 241 235 224 218 218 216 216 219 230 253 285 285 267 313 333 0 1 353 350 354 352 352 346 348 336 325
283 318 333 281 242 211 218 219 210 232 246 258 255 240 234 233 232 240 242 234 221 217 215 217 209 203 210 220 226 220 274 312 322 325 323 323 338 346 333 332 336 335 323 319
305 5 264 250 216 195 218 243 225 237 247 241 242 250 244 229 230 243 237 222 217 215 211 207 205 202 201 189 181 192 256 284 296 293 287 304 318 309 314 315 307 307 310 315
123 284 282 289 247 186 204 266 230 228 244 252 258 305 281 242 221 228 228 216 207 203 200 195 198 196 181 190 190 204 243 258 269 263 264 279 283 292 298 302 304 307 312 308
141 206 252 257 209 169 123 281 244 205 229 232 149 252 268 248 220 228 224 210 199 185 181 191 203 180 179 210 216 234 245 252 259 252 245 251 265 279 294 292 289 296 298 295
189 231 262 253 193 129 175 252 228 195 213 200 198 223 245 247 240 232 214 208 192 183 192 206 194 176 199 219 233 244 247 254 262 254 250 251 266 284 293 287 295 290 288 292
169 207 254 206 152 193 221 245 224 215 215 212 227 248 249 245 246 234 226 221 200 199 216 210 183 183 212 233 246 247 239 247 253 257 258 260 261 272 282 275 281 287 290 294
195 217 239 183 204 223 214 230 236 225 227 218 234 242 240 234 233 232 228 226 213 207 223 221 199 195 219 239 230 219 231 241 247 252 257 255 248 253 267 270 268 276 280 285
245 256 248 239 244 249 232 234 242 229 224 215 232 240 240 238 238 235 233 228 224 211 223 236 224 219 226 228 201 201 225 238 237 237 250 254 250 243 242 247 258 264 269 276
246 262 281 254 233 237 237 237 242 238 228 226 226 237 234 238 240 239 241 240 223 220 231 239 232 231 230 212 191 207 226 232 236 236 238 244 246 241 243 243 245 252 252 254
227 218 207 238 224 211 216 228 229 229 238 232 220 232 235 237 240 237 237 235 233 236 240 243 235 238 231 209 197 202 222 229 230 232 236 241 252 271 264 263 272 271 271 274
230 226 220 242 242 213 214 223 223 217 221 231 229 223 228 237 240 235 237 233 234 238 241 241 237 242 234 211 202 208 219 224 226 226 228 234 239 249 272 281 270 270 273 276
234 237 253 245 240 230 220 223 218 218 225 224 228 224 224 233 240 239 240 240 240 240 241 237 238 244 232 207 206 216 221 222 220 224 226 229 233 240 246 258 275 277 275 276
228 221 233 247 242 231 218 210 220 233 235 237 223 221 222 228 237 244 247 244 241 244 246 240 242 248 223 203 210 217 220 223 221 225 226 229 233 237 242 247 257 271 285 284
221 223 231 239 245 243 227 218 226 237 233 234 230 229 229 231 241 250 248 227 226 242 245 240 244 244 212 203 212 220 223 225 219 220 223 227 229 233 238 244 250 255 258 264
209 230 227 233 238 240 234 228 228 234 232 232 233 232 228 232 246 253 252 239 236 246 246 241 246 240 212 207 211 219 222 224 218 221 225 226 228 231 235 237 243 249 254 254
218 227 223 224 227 231 236 231 230 229 229 232 228 221 221 224 236 248 254 254 257 264 254 244 243 236 223 215 214 216 215 220 219 224 228 231 233 234 235 238 242 248 260 263
221 228 229 228 228 226 231 230 228 228 229 218 214 223 230 235 240 248 246 238 244 257 259 243 239 231 233 227 216 211 213 219 227 230 230 233 236 235 234 237 241 243 246 249
219 223 226 230 231 228 232 234 224 226 225 212 216 228 239 242 239 239 232 236 237 243 251 245 238 232 234 230 218 213 215 220 225 230 230 231 234 237 238 240 241 242 241 242
218 220 223 226 233 236 233 229 220 228 227 209 214 229 240 248 233 219 225 252 255 237 237 236 236 239 233 228 218 217 218 223 227 229 231 234 237 240 240 240 241 241 242 244
214 214 220 222 226 240 242 228 223 227 226 225 229 234 240 248 240 235 233 241 254 232 235 239 239 237 235 228 222 223 225 227 231 232 233 234 236 240 242 243 244 244 243 244
214 214 218 221 222 232 246 234 225 221 225 228 229 231 235 238 225 229 256 246 236 239 243 244 247 245 235 228 228 230 232 233 235 235 235 236 237 239 244 245 245 245 245 245
212 210 218 220 189 209 243 250 240 236 238 241 237 234 232 242 249 238 250 257 246 248 254 254 251 248 238 234 233 235 238 239 239 241 242 243 243 243 245 247 248 247 246 245
216 206 184 178 207 233 246 255 253 250 246 253 255 246 236 229 237 250 251 253 254 258 265 260 256 252 243 241 239 240 243 245 244 243 243 244 244 245 247 247 247 248 248 247
225 226 224 224 232 240 234 223 241 251 247 260 267 257 252 254 253 256 255 250 246 250 256 258 252 248 249 250 250 251 251 253 253 248 246 247 247 246 248 248 249 249 249 250
259 248 253 267 267 252 238 230 239 248 245 249 267 266 257 260 260 257 256 258 257 258 260 261 257 253 253 254 256 256 256 256 255 254 252 250 249 248 249 249 249 249 249 249